Tracking 29932 objects as of 3-Dec-2024
HD Live streaming from Space Station
objects crossing your sky now

USA 17

Track USA 17 now!
10-day predictions
USA 17 is classified as:


NORAD ID: 16625
Int'l Code: 1986-014F
Perigee: 398.1 km
Apogee: 1,642.8 km
Inclination: 63.3 °
Period: 105.4 minutes
Semi major axis: 7391 km
RCS: Unknown
Launch date: February 9, 1986
Source: United States (US)
Launch site: AIR FORCE WESTERN TEST RANGE (AFWTR)
Your satellite tracking list
Your tracking list is empty




NASA's NSSDC Master Catalog

Two Line Element Set (TLE):
1 16625U 86014F   24337.90878700  .00012135  00000-0  10110-2 0  9994
2 16625  63.2953 192.4277 0841956 105.4268 264.1297 13.66175908265876
Source of the keplerian elements: AFSPC